User: anonymous   Login
Location: Ferchesar
(52.6477°N, 12.4298°E)
Time: 10:23:35
(UTC+02:00)
Language:

BUGSAT 1 - Orbit

View from above orbital plane
View from above orbital plane
View from above satellite
View from above satellite

Ground track
Ground track

The orbit data is extracted from the following two-line orbital elements,

1 40014U 14033E   21300.60591259  .00000339  00000-0  35706-4 0  9993
2 40014  98.1256 284.9188 0032786  87.5220 272.9748 14.95894747401329
Epoch (UTC): 27 October 2021 14:32:30
Eccentricity: 0.0032786
inclination: 98.1256°
perigee height: 557 km
apogee height: 602 km
right ascension of ascending node: 284.9188°
argument of perigee: 87.5220°
revolutions per day: 14.95894747
mean anomaly at epoch: 272.9748°
orbit number at epoch: 40132

The dashed part of the orbit path shows where the satellite is in the earth's shadow,  

DLR